• în Republica Moldova
  • Lista ţărilor
  • Pe 7 zile
  • Temperatura apei
  • Hartă satelitară
  • Meteo pe hartă
  • Widget-uri
  • user-avatar
    Intrare

    Meteo pe oră la Prutz

    Astăzi, 21 Februarie, Marţi

    Timp Temperatura Precipitaţii Vânt Presiune Umiditate
    00:00 -3°C° 0,2 mm 2 m/s 633 mmHg 93%
    01:00 -2°C° 0,2 mm 2 m/s 633 mmHg 93%
    02:00 -2°C° 0,2 mm 2 m/s 633 mmHg 93%
    03:00 -2°C° 0,2 mm 2 m/s 633 mmHg 94%
    04:00 -1°C° 0,2 mm 2 m/s 633 mmHg 95%
    05:00 -2°C° 0,1 mm 2 m/s 632 mmHg 96%
    06:00 -2°C° 0,1 mm 2 m/s 632 mmHg 96%
    07:00 -2°C° 0,1 mm 2 m/s 631 mmHg 97%
    08:00 -1°C° 0,3 mm 2 m/s 632 mmHg 97%
    09:00 +2°C° 0,3 mm 2 m/s 632 mmHg 97%
    10:00 +3°C° 0,3 mm 2 m/s 633 mmHg 97%
    11:00 +3°C° 0,6 mm 2 m/s 632 mmHg 97%
    12:00 +5°C° 0,6 mm 1 m/s 632 mmHg 97%
    13:00 +5°C° 0,6 mm 1 m/s 632 mmHg 97%
    14:00 +5°C° 0,8 mm 1 m/s 632 mmHg 97%
    15:00 +4°C° 0,8 mm 1 m/s 632 mmHg 98%
    16:00 +4°C° 0,8 mm 1 m/s 632 mmHg 98%
    17:00 +4°C° 0,6 mm 1 m/s 632 mmHg 98%
    18:00 +3°C° 0,6 mm 1 m/s 632 mmHg 98%
    19:00 +3°C° 0,6 mm 1 m/s 632 mmHg 97%
    20:00 +2°C° 0,2 mm 1 m/s 632 mmHg 98%
    21:00 +2°C° 0,2 mm 1 m/s 632 mmHg 98%
    22:00 +1°C° 0,2 mm 1 m/s 632 mmHg 98%
    23:00 0°C° 0 mm 1 m/s 632 mmHg 98%

    Mâine, 22 Februarie, Miercuri

    Timp Temperatura Precipitaţii Vânt Presiune Umiditate
    00:00 -1°C° 0 mm 1 m/s 631 mmHg 98%
    01:00 -1°C° 0 mm 1 m/s 631 mmHg 98%
    02:00 -1°C° 0 mm 1 m/s 631 mmHg 97%
    03:00 -1°C° 0 mm 1 m/s 631 mmHg 97%
    04:00 -1°C° 0 mm 1 m/s 630 mmHg 97%
    05:00 -1°C° 0 mm 1 m/s 630 mmHg 96%
    06:00 -2°C° 0 mm 1 m/s 630 mmHg 96%
    07:00 -4°C° 0 mm 2 m/s 629 mmHg 95%
    08:00 0°C° 0 mm 1 m/s 630 mmHg 95%
    09:00 +2°C° 0 mm 1 m/s 631 mmHg 95%
    10:00 +4°C° 0 mm 1 m/s 632 mmHg 95%
    11:00 +5°C° 0 mm 1 m/s 632 mmHg 94%
    12:00 +6°C° 0 mm 1 m/s 632 mmHg 94%
    13:00 +6°C° 0 mm 1 m/s 632 mmHg 94%
    14:00 +6°C° 0 mm 1 m/s 631 mmHg 95%
    15:00 +6°C° 0 mm 1 m/s 631 mmHg 95%
    16:00 +5°C° 0 mm 1 m/s 631 mmHg 96%
    17:00 +2°C° 0 mm 2 m/s 630 mmHg 95%
    18:00 +1°C° 0 mm 2 m/s 630 mmHg 95%
    19:00 -2°C° 0 mm 2 m/s 630 mmHg 94%
    20:00 -3°C° 0 mm 2 m/s 630 mmHg 92%
    21:00 -3°C° 0 mm 2 m/s 630 mmHg 91%
    22:00 -4°C° 0 mm 2 m/s 630 mmHg 89%
    23:00 -4°C° 0 mm 2 m/s 629 mmHg 88%

    Poimâine, 23 Februarie, Joi

    Timp Temperatura Precipitaţii Vânt Presiune Umiditate
    00:00 -4°C° 0 mm 2 m/s 629 mmHg 86%
    01:00 -3°C° 0 mm 2 m/s 629 mmHg 85%
    02:00 -4°C° 0 mm 2 m/s 629 mmHg 84%
    03:00 -4°C° 0 mm 2 m/s 628 mmHg 83%
    04:00 -4°C° 0 mm 2 m/s 628 mmHg 81%
    05:00 -4°C° 0 mm 2 m/s 628 mmHg 81%
    06:00 -4°C° 0 mm 2 m/s 628 mmHg 80%
    07:00 -4°C° 0 mm 2 m/s 628 mmHg 79%
    08:00 -2°C° 0 mm 2 m/s 628 mmHg 81%
    09:00 +1°C° 0 mm 2 m/s 629 mmHg 83%
    10:00 +4°C° 0 mm 2 m/s 629 mmHg 86%
    11:00 +4°C° 0 mm 2 m/s 629 mmHg 86%
    12:00 +5°C° 0 mm 2 m/s 629 mmHg 86%
    13:00 +6°C° 0 mm 2 m/s 628 mmHg 87%
    14:00 +6°C° 0 mm 2 m/s 628 mmHg 89%
    15:00 +5°C° 0 mm 2 m/s 627 mmHg 91%
    16:00 +5°C° 0 mm 2 m/s 627 mmHg 93%
    17:00 +3°C° 0 mm 2 m/s 627 mmHg 94%
    18:00 +2°C° 0 mm 2 m/s 626 mmHg 95%
    19:00 +1°C° 0 mm 2 m/s 626 mmHg 96%
    20:00 -1°C° 0 mm 2 m/s 626 mmHg 96%
    21:00 -1°C° 0 mm 2 m/s 625 mmHg 96%
    22:00 -2°C° 0 mm 2 m/s 625 mmHg 95%
    23:00 -2°C° 0 mm 2 m/s 625 mmHg 95%

    24 Februarie, Vineri

    Timp Temperatura Precipitaţii Vânt Presiune Umiditate
    00:00 -2°C° 0 mm 2 m/s 624 mmHg 94%
    01:00 -2°C° 0 mm 2 m/s 624 mmHg 93%
    02:00 -2°C° 0,2 mm 2 m/s 624 mmHg 93%
    03:00 -2°C° 0,2 mm 2 m/s 624 mmHg 94%
    04:00 -2°C° 0,2 mm 2 m/s 623 mmHg 94%
    05:00 -2°C° 1,1 mm 2 m/s 624 mmHg 94%
    06:00 -2°C° 1,1 mm 2 m/s 624 mmHg 95%
    07:00 -2°C° 1,1 mm 2 m/s 624 mmHg 96%
    08:00 -2°C° 0,7 mm 2 m/s 624 mmHg 95%
    09:00 -2°C° 0,7 mm 2 m/s 624 mmHg 95%
    10:00 -2°C° 0,7 mm 2 m/s 625 mmHg 94%
    11:00 -2°C° 0,2 mm 2 m/s 625 mmHg 92%
    12:00 -1°C° 0,2 mm 2 m/s 625 mmHg 90%
    13:00 -1°C° 0,2 mm 3 m/s 624 mmHg 88%
    14:00 -2°C° 0,2 mm 2 m/s 624 mmHg 88%
    15:00 -2°C° 0,2 mm 2 m/s 624 mmHg 88%
    16:00 -2°C° 0,2 mm 2 m/s 624 mmHg 89%
    17:00 -4°C° 1,3 mm 3 m/s 624 mmHg 91%
    18:00 -5°C° 1,3 mm 3 m/s 625 mmHg 93%
    19:00 -5°C° 1,3 mm 3 m/s 626 mmHg 94%
    20:00 -6°C° 1 mm 3 m/s 626 mmHg 95%
    21:00 -6°C° 1 mm 3 m/s 627 mmHg 95%
    22:00 -6°C° 1 mm 3 m/s 628 mmHg 95%
    23:00 -6°C° 0,6 mm 3 m/s 628 mmHg 95%

    25 Februarie, Sâmbătă

    Timp Temperatura Precipitaţii Vânt Presiune Umiditate
    00:00 -6°C° 0,6 mm 2 m/s 629 mmHg 95%
    01:00 -6°C° 0,6 mm 2 m/s 629 mmHg 95%
    02:00 -6°C° 0,3 mm 2 m/s 630 mmHg 95%
    03:00 -6°C° 0,3 mm 2 m/s 630 mmHg 95%
    04:00 -4°C° 0,3 mm 1 m/s 631 mmHg 95%
    05:00 -6°C° 0,2 mm 2 m/s 631 mmHg 95%
    06:00 -6°C° 0,2 mm 2 m/s 631 mmHg 95%
    07:00 -6°C° 0,2 mm 2 m/s 632 mmHg 95%
    08:00 -5°C° 0 mm 2 m/s 632 mmHg 94%
    09:00 -3°C° 0 mm 2 m/s 633 mmHg 93%
    10:00 -1°C° 0 mm 2 m/s 633 mmHg 93%
    11:00 +1°C° 0,1 mm 2 m/s 633 mmHg 93%
    12:00 +2°C° 0,1 mm 2 m/s 633 mmHg 93%
    13:00 +3°C° 0,1 mm 2 m/s 633 mmHg 94%
    14:00 +3°C° 0,1 mm 2 m/s 633 mmHg 94%
    15:00 +3°C° 0,1 mm 2 m/s 633 mmHg 95%
    16:00 +3°C° 0,1 mm 2 m/s 633 mmHg 95%
    17:00 +2°C° 0,1 mm 2 m/s 633 mmHg 96%
    18:00 +1°C° 0,1 mm 2 m/s 633 mmHg 96%
    19:00 -1°C° 0,1 mm 2 m/s 633 mmHg 96%
    20:00 +1°C° 0,4 mm 2 m/s 633 mmHg 96%
    21:00 +1°C° 0,4 mm 2 m/s 633 mmHg 96%
    22:00 +1°C° 0,4 mm 2 m/s 634 mmHg 96%
    23:00 +1°C° 0,2 mm 2 m/s 634 mmHg 96%

    26 Februarie, Duminică

    Timp Temperatura Precipitaţii Vânt Presiune Umiditate
    00:00 +1°C° 0,2 mm 2 m/s 634 mmHg 96%
    01:00 +1°C° 0,2 mm 2 m/s 634 mmHg 96%
    02:00 +1°C° 0,1 mm 2 m/s 634 mmHg 96%
    03:00 +1°C° 0,1 mm 2 m/s 634 mmHg 95%
    04:00 +1°C° 0,1 mm 2 m/s 634 mmHg 95%
    05:00 -1°C° 0 mm 2 m/s 633 mmHg 95%
    06:00 -1°C° 0 mm 2 m/s 633 mmHg 95%
    07:00 -2°C° 0 mm 2 m/s 633 mmHg 95%
    08:00 +1°C° 0 mm 2 m/s 634 mmHg 95%
    09:00 +4°C° 0 mm 1 m/s 635 mmHg 95%
    10:00 +5°C° 0 mm 1 m/s 635 mmHg 95%
    11:00 +6°C° 0 mm 1 m/s 635 mmHg 94%
    12:00 +6°C° 0 mm 1 m/s 635 mmHg 94%
    13:00 +7°C° 0 mm 1 m/s 635 mmHg 93%
    14:00 +7°C° 0 mm 1 m/s 635 mmHg 94%
    15:00 +6°C° 0 mm 1 m/s 635 mmHg 95%
    16:00 +6°C° 0 mm 1 m/s 634 mmHg 96%
    17:00 +4°C° 0 mm 1 m/s 634 mmHg 95%
    18:00 +2°C° 0 mm 1 m/s 633 mmHg 94%
    19:00 0°C° 0 mm 1 m/s 632 mmHg 93%
    20:00 0°C° 0 mm 1 m/s 632 mmHg 90%
    21:00 -2°C° 0 mm 2 m/s 632 mmHg 88%
    22:00 -2°C° 0 mm 2 m/s 632 mmHg 85%
    23:00 -1°C° 0 mm 2 m/s 632 mmHg 85%
    Arată mai mult